Location: Komatikunta
(16.8937°N, 80.5988°E)
Time: 19:02:54
(UTC+00:00)

Daily predictions for brighter satellites

Satellite Brightness Start Highest point End
(mag) Time Altitude Azimuth Time Altitude Azimuth Time Altitude Azimuth
Cosmos 2056 Rocket 3.6 13:28:37 10° SSW 13:33:45 85° WNW 13:38:58 10° NNE
CRYOSAT 2 4.4 13:30:09 10° SSE 13:34:58 66° E 13:39:45 10° N
Nadezhda 3 Rocket 4.0 13:29:02 10° S 13:35:09 76° E 13:41:16 10° N
Hubble Space Telescope 0.8 13:32:43 10° WNW 13:36:49 75° SSW 13:40:55 10° ESE
SAR-Lupe-4 4.5 13:35:04 10° NE 13:38:11 28° E 13:41:17 10° SSE
Palapa B4 Rocket 3.7 13:36:43 10° W 13:41:19 85° S 13:48:35 10° ESE
Cosmos 2285 Rocket 4.2 13:35:11 10° S 13:41:25 54° E 13:47:39 10° NNE
DMSP B5D2-2 4.1 13:36:19 10° NNE 13:41:33 90° NNE 13:46:46 10° SSW
Cosmos 2251 Rocket 3.6 13:37:52 10° N 13:43:07 65° ENE 13:48:24 10° SSE
Cosmos 1420 Rocket 3.9 13:43:07 10° S 13:48:16 80° ESE 13:53:27 10° NNE
SL-4 R/B 3.6 13:45:13 10° S 13:48:26 19° SE 13:51:32 10° E
ARIANE 44L R/B 4.4 13:48:21 10° S 13:48:43 10° SSE 13:49:07 10° SSE
Cosmos 2360 Rocket 3.1 13:45:09 10° SSE 13:49:42 25° ESE 13:54:14 10° NE
HJ-1C 3.2 13:47:29 10° SSE 13:50:45 75° E 13:54:00 10° N
GPS 2-18 Rocket1 3.2 13:47:57 10° WSW 13:51:44 58° SSE 13:55:34 10° E
SL-16 R/B 2.2 13:47:37 10° SSW 13:53:16 81° ESE 13:58:55 10° NNE
Cosmos 2322 Rocket 2.3 13:47:53 10° S 13:53:27 58° ESE 13:59:01 10° NNE
ERS-2 2.8 13:52:34 10° NE 13:55:53 33° E 13:59:12 10° SSE
Lacrosse 5 rocket 2.3 13:53:55 10° SW 13:57:45 48° WNW 14:01:25 10° NNE
ARGOS 3.5 13:52:57 10° S 13:58:18 69° WSW 14:03:39 10° NNW
X-37B 2.2 13:57:29 10° S 13:59:34 16° SE 13:59:36 16° SE
Okean-O 2.6 13:55:40 10° SSE 14:00:06 87° ENE 14:04:31 10° N
SL-08 RB Rocket 3.7 13:58:47 10° S 14:03:14 82° WSW 14:07:43 10° NNW
Cosmos 2082 3.7 13:58:13 10° N 14:03:55 70° ENE 14:09:34 10° SSE
NATO 3D Rocket 3.9 14:02:59 10° WNW 14:08:01 52° N 14:12:13 12° E
FUSE 4.3 14:06:13 10° W 14:11:29 56° SSW 14:15:06 20° SE
CSL-04 Rocket 3.7 14:09:14 10° SSE 14:14:42 74° ENE 14:20:13 10° N
Okean 2 3.3 14:14:14 10° S 14:18:16 62° E 14:22:18 10° NNE
Cosmos 1821 Rocket 4.0 14:12:37 10° N 14:18:44 85° W 14:24:48 10° S
Okean 2 Rocket 3.2 14:15:59 10° N 14:20:26 59° E 14:23:33 19° SSE
Cosmos 1842 3.7 14:16:49 10° SSW 14:20:40 61° W 14:24:33 10° N
Ariane Rocket 4.4 14:20:27 19° E 14:21:39 20° ENE 14:25:18 10° NNE
Cosmos 2237 4.1 14:16:49 10° SSW 14:22:30 78° ESE 14:28:11 10° NNE
Cosmos 1674 Rocket 3.8 14:18:50 10° S 14:23:14 72° W 14:27:36 10° N
OBJECT-B 1.1 14:27:34 41° ESE 14:27:58 44° ENE 14:31:01 10° N
Resurs 01 Rocket 3.9 14:29:29 10° ENE 14:29:29 10° ENE 14:29:46 10° ENE
Meteor 1-21 4.1 14:23:40 10° S 14:29:21 79° E 14:34:59 10° N
H-2A R/B 4.2 14:26:36 10° SW 14:29:23 16° S 14:32:12 14° SSE
Cosmos 1300 Rocket 3.8 14:25:34 10° N 14:29:51 69° W 14:33:46 12° S
Cosmos 1400 Rocket 2.6 14:26:21 10° N 14:30:12 77° E 14:32:05 29° SSE
Cosmos 2151 Rocket 3.6 14:26:33 10° N 14:30:51 59° E 14:32:49 30° SSE
Lacrosse 5 4.1 14:30:50 10° NE 14:31:53 11° NE 14:32:55 10° ENE
Cosmos 1726 4.0 14:29:32 10° NE 14:31:04 17° ENE 14:31:04 17° ENE
Cosmos 1241 Rocket 4.4 14:28:44 10° NNW 14:35:00 67° ENE 14:38:16 29° SE
USA 186 1.2 14:35:13 71° SSW 14:35:25 78° W 14:38:12 10° NNW
ATLAS 3B R/B 2.5 14:29:42 10° S 14:36:05 59° ESE 14:42:28 10° NE
USA 234 3.2 14:33:22 24° SE 14:37:39 87° SW 14:44:12 10° NW
Cosmos 1140 Rocket 3.4 14:33:07 10° N 14:38:21 77° ENE 14:40:57 30° SSE
In-Cosmos 22 4.1 14:39:58 27° SSE 14:42:41 56° E 14:47:49 10° NNE
Cosmos 1110 Rocket 3.9 14:40:03 19° S 14:43:40 59° ESE 14:48:45 10° NNE
Cosmos 1766 4.0 14:42:13 10° NNW 14:45:59 50° W 14:48:10 22° SSW
Cosmos 1934 Rocket 3.9 14:45:02 10° N 14:51:13 87° W 14:55:22 23° S
Cosmos 2263 Rocket 2.3 14:45:48 10° N 14:51:21 56° ENE 14:52:43 45° ESE
GPS 2-17 Rocket1 3.7 14:47:59 10° SW 14:51:09 35° SSW 14:51:09 35° SSW
Meteor 2-20 4.4 14:46:40 10° S 14:52:47 86° W 14:58:52 10° N
Cosmos 2333 4.2 14:52:38 27° S 14:55:41 61° ESE 15:01:21 10° NNE
Cosmos 1470 3.4 14:52:28 10° N 14:55:27 42° NE 14:55:27 42° NE
SJ-6B 3.2 14:57:17 46° SSW 14:58:18 64° W 15:02:20 10° NNW
Palapa 6 Rocket 4.2 14:52:32 10° WNW 14:59:14 73° SSW 15:01:50 44° SE
BREEZE M DEB (TANK) 4.5 15:06:19 10° WNW 15:06:38 14° WNW 15:06:38 14° WNW
Cosmos 2219 Rocket 2.6 15:10:21 45° ENE 15:10:21 45° ENE 15:14:41 10° NNE
Cosmos 2333 Rocket 2.1 15:08:59 62° SE 15:09:36 67° ESE 15:15:17 10° NNE
Cosmos 1727 Rocket 4.0 15:07:44 23° S 15:11:51 79° W 15:18:09 10° N
Hubble Space Telescope 3.3 15:15:33 10° WSW 15:16:33 13° SW 15:16:33 13° SW
Resurs 1-3 3.9 15:19:43 66° NW 15:19:43 66° NW 15:23:35 10° NNW
Okean 1 Rocket 3.4 15:15:13 10° N 15:19:04 65° NW 15:19:04 65° NW
Cosmos 1315 Rocket 4.0 15:23:12 10° NNW 15:25:58 40° NNW 15:25:58 40° NNW
SL-4 R/B 3.8 15:23:49 10° WSW 15:27:54 33° NW 15:31:44 10° NNE
Cosmos 1605 Rocket 4.3 15:23:16 10° NNW 15:29:32 65° W 15:31:14 47° SSW
Cosmos 2360 Rocket 4.2 15:28:52 10° SW 15:33:26 25° WNW 15:38:01 10° NNW
COSMOS 2428 3.7 16:03:27 43° NNW 16:03:27 43° NNW 16:07:31 10° N
Resurs 01 Rocket 3.9 16:07:03 22° NW 16:07:03 22° NW 16:08:51 10° NNW
Lacrosse 5 3.8 16:10:03 10° NW 16:12:16 26° NW 16:12:16 26° NW
Cosmos 1844 Rocket 4.4 16:15:01 10° N 16:17:30 27° N 16:17:30 27° N
SL-16 R/B 4.4 20:15:52 25° NNE 20:15:52 25° NNE 20:18:34 10° N
SeaSat 1 4.5 20:56:57 10° NNE 20:58:53 24° NNE 20:58:53 24° NNE
ATLAS 5 CENTAUR R/B 4.4 21:08:29 38° W 21:16:36 87° SSW 22:42:45 10° ESE
Cosmos 1833 Rocket 3.5 21:19:13 46° NE 21:19:13 46° NE 21:23:10 10° NNE
Chandra Rocket (1) 4.0 21:18:34 51° WNW 21:20:47 61° NNW 21:25:56 10° NE
MSX 4.5 21:15:43 10° NNE 21:19:55 51° NNE 21:19:55 51° NNE
CZ-4B R/B 4.4 21:21:50 10° NNE 21:25:39 45° NE 21:25:39 45° NE
ASTEX 1 4.5 21:32:34 40° N 21:32:34 40° N 21:35:46 10° N
ARIANE 5 R/B 3.3 21:27:22 10° NNE 21:30:56 47° NNE 21:30:56 47° NNE
S3M 4.0 21:30:39 10° N 21:36:51 77° E 21:37:05 76° ESE
Cosmos 2082 Rocket 2.6 21:41:52 53° ESE 21:42:07 53° ESE 21:47:34 10° NNE
ATLAS 2A CENTAUR R/B 3.8 21:46:53 15° ESE 21:46:53 15° ESE 21:48:11 10° ESE
USA 281 4.2 21:38:26 10° SE 21:44:35 44° ENE 21:50:43 10° N
Cosmos 1743 Rocket 4.5 21:54:13 43° N 21:54:13 43° N 21:57:12 10° N
NOSS 3-4 (A) 3.4 22:01:45 57° WNW 22:01:49 57° WNW 22:07:33 10° NNE
NOSS 3-4 (C) 3.3 22:01:51 57° WNW 22:01:57 57° WNW 22:07:41 10° NNE
IDEFIX/ARIANE 42P 4.4 21:59:57 10° NNW 22:01:56 18° NW 22:01:56 18° NW
PAYLOAD A 4.0 22:01:23 10° NNE 22:06:36 84° E 22:07:39 59° S
Spot 1 4.3 22:07:03 75° SW 22:07:20 78° WSW 22:12:24 10° NNW
ADEOS Rocket 4.1 22:08:57 34° W 22:08:57 34° W 22:14:11 10° NW
COSMOS 2406 4.1 22:08:42 34° WNW 22:08:42 34° WNW 22:13:16 10° N
ATLAS 2AS CENTAUR R/B 3.0 22:08:28 38° SSW 22:11:55 80° ESE 22:19:50 10° NNE
Spot 4 Rocket 3.9 22:07:13 10° N 22:12:19 72° WNW 22:12:51 65° WSW
Sich 1 3.5 22:11:46 44° SE 22:12:49 56° E 22:17:06 10° NNE
Cosmos 1244 Rocket 4.4 22:11:12 36° S 22:13:59 87° E 22:20:13 10° N
Cosmos 883 Rocket 4.3 22:08:11 10° N 22:14:17 80° W 22:17:14 33° S
Mugunghwa Rocket 4.3 22:12:01 40° W 22:14:19 61° NNW 22:21:18 10° ENE
CZ-2C R/B 2.1 22:10:27 10° N 22:15:14 85° WNW 22:15:52 67° SSW
Cosmos 158 Rocket 3.7 22:23:34 55° SW 22:24:35 76° WNW 22:29:27 10° N
Intelsat 5-2 Rocket 4.4 22:25:05 22° NW 22:26:47 35° NNE 22:33:14 10° ENE
Cosmos 2228 Rocket 4.1 22:23:02 10° NNE 22:27:16 44° E 22:31:28 10° SSE
Centaur AC-125 4.3 22:26:33 12° NNW 22:28:20 21° NNE 22:32:21 10° ENE
ASC 2 Rocket 3.8 22:26:27 20° WNW 22:29:48 51° N 22:33:52 10° E
Cosmos 1656 4.1 22:25:14 10° N 22:30:52 65° ENE 22:36:25 10° SSE
Cosmos 1484 Rocket 3.8 22:28:28 10° NNE 22:32:00 41° E 22:34:18 19° SSE
Cosmos 1602 4.1 22:30:20 31° SSE 22:32:01 62° E 22:35:51 10° NNE
ALOS 2.2 22:28:50 10° NNE 22:33:29 84° E 22:35:57 28° S
Cosmos 1515 Rocket 4.0 22:31:46 10° NNW 22:35:56 41° W 22:35:56 41° W
GPS 2-15 Rocket1 3.6 22:38:29 37° SSW 22:39:58 50° SSE 22:44:45 10° E
RESURS DK-1 3.4 22:40:01 16° S 22:42:54 42° ESE 22:46:49 10° NE
Cosmos 1633 Rocket 3.6 22:39:13 12° S 22:43:11 58° E 22:47:30 10° NNE
Cosmos 1697 Rocket 4.2 22:40:48 10° N 22:46:02 38° ENE 22:51:15 10° SE
BREEZE-M DEB (TANK) 3.6 22:45:29 10° NW 22:50:12 22° S 22:51:14 10° SSE
Meteor 1-20 Rocket 4.2 22:46:16 22° SSW 22:49:47 59° W 22:55:12 10° N
Cosmos 1680 Rocket 3.5 22:46:04 16° S 22:50:16 83° ESE 22:55:35 10° NNE
CENTAUR R/B 4.3 22:50:44 10° N 22:59:09 49° ENE 23:07:35 10° SE
CZ-2C R/B 4.1 22:58:19 10° NNW 23:01:06 20° WNW 23:01:33 20° W
ISS -3.5 23:00:42 24° SSW 23:02:32 65° SE 23:05:52 10° NE
Centaur D-1A AC-32 2.7 23:01:53 23° SW 23:04:07 70° SSE 23:13:04 10° ENE
PSLV R/B 4.3 23:05:12 10° NNW 23:09:08 34° WNW 23:11:54 17° SW
SL-19 R/B 4.5 23:03:01 10° SSE 23:09:29 81° WSW 23:15:26 10° NNW
Cosmos 1980 Rocket 4.1 23:11:11 10° N 23:16:12 34° ENE 23:21:12 10° SE
ATLAS V CENTAUR R/B 3.2 23:12:50 14° WSW 23:18:35 53° S 23:21:00 10° E
Cosmos 1709 Rocket 4.1 23:13:19 10° S 23:19:24 82° E 23:25:30 10° N
Meteor 1-14 Rocket 4.3 23:16:41 10° S 23:22:32 78° W 23:28:16 10° N
Cosmos 1745 Rocket 4.3 23:16:45 10° SSW 23:22:37 46° W 23:28:28 10° NNW
CZ-4B R/B 3.8 23:19:55 10° NNE 23:23:33 73° ESE 23:27:10 10° S
Cosmos 2369 4.1 23:19:51 10° N 23:25:28 67° ENE 23:31:03 10° SSE
Cosmos 2082 Rocket 4.1 23:24:24 10° W 23:26:17 12° WNW 23:28:10 10° NW
GPS 2-14 Rocket1 2.7 23:23:33 13° WSW 23:26:51 65° SSE 23:30:36 10° E
Cosmos 44 Rocket 3.4 23:22:44 10° SSW 23:27:42 75° WNW 23:32:49 10° NNE
GPS 2-17 Rocket1 4.4 23:25:52 12° WSW 23:28:53 21° SSW 23:32:25 10° SSE
USA 281 4.3 23:24:12 10° SSW 23:28:56 21° WSW 23:33:42 10° WNW
Cosmos 2360 4.2 23:24:05 10° NNW 23:29:46 87° WSW 23:35:26 10° SSE
IRAS Rocket 4.3 23:26:11 10° SSE 23:31:49 88° WSW 23:37:26 10° NNW
Delta 202 3.8 23:29:06 10° WSW 23:34:23 72° SSE 23:41:01 10° E
Cosmos 1500 4.1 23:32:35 10° SW 23:35:47 27° W 23:38:59 10° NNW
MOS 1 Rocket 3.1 23:32:15 10° S 23:36:31 62° W 23:40:44 10° NNW
Cosmos 1470 Rocket 3.8 23:32:15 10° SSW 23:36:35 51° W 23:40:56 10° N
Landsat 5 3.9 23:34:39 10° SSE 23:38:27 62° ENE 23:42:13 10° N
CZ-4C R/B 3.7 23:39:39 10° SSE 23:42:51 56° ENE 23:46:10 10° N
YAOGAN 6 3.0 23:39:35 10° NNE 23:43:00 62° E 23:46:26 10° S
SL-27 R/B 3.4 23:41:56 10° S 23:45:05 46° ESE 23:48:16 10° NNE
